Weather Roundup
Issued by NWS

Home | Current Version | Previous Version | Text Only | Print | Product List | Glossary On
Versions: 1 2 3 4 5 6 7 8 9 10 11 12 13 14 15 16 17 18 19 20 21 22 23 24 25 26 27 28 29 30 31 32 33 34 35 36 37 38 39 40 41 42 43 44 45 46 47 48 49 50
420
NZUS93 KARX 041559
HRRWXR

CURRENT HOURLY OBSERVATIONS ACROSS
MUCH OF THE UPPER MISSISSIPPI VALLEY
NATIONAL WEATHER SERVICE LA CROSSE WI
1000 AM CST SUN DEC 04 2016


...SOUTHEAST MINNESOTA...


CITY           SKY/WX    TMP DP  RH WIND       PRES   REMARKS
ROCHESTER      LGT SNOW  33  32  96 S13       29.91S VSB 3/4 WCI  24
ROCHESTER/MAYO CLOUDY    32  32 100 S8        29.92S WCI  25
WINONA         LGT SNOW  34  34 100 SE6       29.95F WCI  29
AUSTIN         MIX PCPN  34  30  86 S12       29.91S WCI  25
ALBERT LEA     FOG       36  36 100 SW8       29.90S VSB 1/2 WCI  29
DODGE CENTER   CLOUDY    32  30  93 S15       29.90S WCI  22
PRESTON        LGT SNOW  32  30  94 S13       29.92F WCI  22
OWATONNA       CLOUDY    34  32  93 S10       29.89S FOG     WCI  26
FARIBAULT      FOG       34  34 100 S6        29.90S VSB 1   WCI  29
$$

...ELSEWHERE IN MINNESOTA...


CITY           SKY/WX    TMP DP  RH WIND       PRES   REMARKS
MINNEAPOLIS    CLOUDY    33  31  92 S9        29.88F FOG     WCI  25
INTNL FALLS    SNOW      29  26  89 SE9       29.81F VSB 1/4 WCI  20
DULUTH         LGT SNOW  30  28  92 SE12      29.87F VSB 3/4 WCI  20
RED WING       NOT AVBL
REDWOOD FALLS  PTSUNNY   36  31  82 S9        29.84F WCI  29
MANKATO        CLOUDY    33  32  96 S7        29.89S FOG     WCI  27
WORTHINGTON    CLOUDY    33  31  92 SW16      29.86S WCI  23
FAIRMONT       CLOUDY    35  32  88 SW9       29.89F WCI  28
$$

...SOUTHWEST WISCONSIN...


CITY           SKY/WX    TMP DP  RH WIND       PRES   REMARKS
LA CROSSE      LGT SNOW  34  32  92 S9        29.97F VSB 1   WCI  27
PRAIRIE DU CHI LGT SNOW  32  30  93 SE6       30.01F VSB 1   WCI  26
BOSCOBEL       LGT SNOW  32  29  88 VRB3      30.03F VSB 3/4
LONE ROCK      SNOW      31  29  92 SE7       30.05F VSB 1/2 WCI  24
PLATTEVILLE    CLOUDY    31  31 100 SE13      30.03F WCI  21
FORT MC COY    LGT SNOW  32  31  96 SE6       30.00F WCI  26
MAUSTON-NEW LI LGT SNOW  31  30  95 SE8       30.01F WCI  24
VIROQUA        CLOUDY    31  31  99 SE13G18   29.97F VSB 3/4 WCI  21
WIS DELLS      LGT SNOW  30  29  96 SE6       30.04F VSB 3/4 WCI  24
$$

...ELSEWHERE IN WISCONSIN...


CITY           SKY/WX    TMP DP  RH WIND       PRES   REMARKS
MILWAUKEE      CLOUDY    35  26  69 S5        30.10F WCI  31
MADISON        LGT SNOW  30  28  92 SE10      30.06F VSB 3/4 WCI  21
GREEN BAY      LGT SNOW  32  31  96 SE7       30.10F FOG     WCI  26
EAU CLAIRE     LGT SNOW  30  30 100 SE9       29.93F VSB 1   WCI  22
BLACK RVR FLS  LGT SNOW  32  32 100 SE3       29.98F VSB 1
MEDFORD        LGT SNOW  28  26  92 SE8       29.96F WCI  20
WAUSAU         LGT SNOW  28  27  96 SE8       30.01F VSB 3/4 WCI  20
WIS RAPIDS     SNOW      30  30 100 SE8       30.02F VSB 1/2 WCI  22
MARSHFIELD     SNOW      30  27  88 SE9       29.97F VSB 1/2 WCI  22
RICE LAKE      LGT SNOW  31  29  94 SE12      29.94F WCI  21
$$

...NORTHEAST IOWA...


CITY           SKY/WX    TMP DP  RH WIND       PRES   REMARKS
WATERLOO       LGT SNOW  33  31  92 S13       29.97R VSB 1   WCI  24
DUBUQUE        SNOW      30  28  92 SE13      30.02F VSB 1/2 WCI  20
DECORAH        SNOW      32  30  93 S14       29.95S VSB 1/2 WCI  22
MASON CITY     CLOUDY    33  32  96 S14       29.94S FOG     WCI  23
CHARLES CITY   MIX PCPN  34  34 100 S15       29.94S WCI  24
OELWEIN        SNOW      32  32 100 SE17      29.97F VSB 1/2 WCI  21
$$

...ELSEWHERE IN IOWA...


CITY           SKY/WX    TMP DP  RH WIND       PRES   REMARKS
DES MOINES     FLURRIES  34  32  92 S6        29.98S WCI  29
IOWA CITY      LGT SNOW  33  32  96 SE12      30.03F VSB 1   WCI  24
FORT DODGE     CLOUDY    34  30  86 SW6       29.95S WCI  29
MARSHALLTOWN   LGT SNOW  33  33 100 S8        29.97R VSB 1   WCI  26
CEDAR RAPIDS   LGT SNOW  32  32 100 SE9       29.99F VSB 3/4 WCI  24
$$

...NORTHERN ILLINOIS...


CITY           SKY/WX    TMP DP  RH WIND       PRES   REMARKS
CHICAGO-OHARE  LGT SNOW  32  28  85 SE6       30.10F WCI  26
CHICAGO-MIDWAY FLURRIES  34  25  69 SE7       30.10F WCI  28
MOLINE         SNOW      32  30  92 E5        30.06S VSB 1/2 WCI  27
ROCKFORD       SNOW      31  29  92 SE8       30.09F VSB 1/4 WCI  23
PEORIA         SNOW      32  32 100 E5        30.06S VSB 1/2 WCI  27
$$

NOTE: "FAIR" INDICATES FEW OR NO CLOUDS BELOW 12,000 FEET WITH NO
SIGNIFICANT WEATHER AND/OR OBSTRUCTIONS TO VISIBILITY. WIND
SPEEDS ARE IN MILES-PER-HOUR.




USA.gov is the U.S. government's official web portal to all federal, state and local government web resources and services.